Regional Weather Roundup
Issued by NWS Albany, NY

Home | Current Version | Previous Version | Text Only | Print | Product List | Glossary On
Versions: 1 2 3 4 5 6 7 8 9 10 11 12 13 14 15 16 17 18 19 20 21 22 23 24 25 26 27 28
000
ASUS41 KALY 261410
RWRALY

NEW YORK STATE HOURLY WEATHER ROUNDUP
NATIONAL WEATHER SERVICE ALBANY NY
1000 AM EDT FRI AUG 26 2016

NOTE: "FAIR" INDICATES FEW OR NO CLOUDS BELOW 12,000 FEET WITH NO
SIGNIFICANT WEATHER AND/OR NO OBSTRUCTIONS TO VISIBILITY.

NYZ032-033-038>043-046>054-057>066-NYZ062>081-082-084-261500-
EAST


CITY           SKY/WX    TMP DP  RH WIND       PRES   REMARKS
ALBANY         LGT RAIN  76  71  85 W10       29.99R
GLENS FALLS    CLOUDY    76  71  85 CALM      29.98R
POUGHKEEPSIE   SUNNY     81  72  74 W3        29.97R
NEWBURGH       MOSUNNY   81  75  83 W14       30.00S
MONTGOMERY     MOSUNNY   82  73  74 W7        29.99R
WHITE PLAINS   MOSUNNY   81  72  74 NW7       29.99S
ISLIP          PTSUNNY   80  72  76 SW5       29.98F
NEW YORK CITY  MOSUNNY   83  72  69 NW5       29.98S
CENTRAL PARK     N/A     82  72  69 MISG        N/A
$$

NYZ005>009-017-018-044>046-055-056-261500-
CENTRAL


CITY           SKY/WX    TMP DP  RH WIND       PRES   REMARKS
FULTON         MOSUNNY   76  67  73 NW10      30.05R
SYRACUSE       MOSUNNY   77  66  68 W7        30.04R
ROME           SUNNY     76  68  76 NW9       30.04R
ELMIRA         PTSUNNY   78  66  66 NW7       30.08S
BINGHAMTON     PTSUNNY   72  69  90 N10       30.10R
MONTICELLO     PTSUNNY   75  72  88 W14       30.07R
$$

NYZ026>034-041>043-087-261500-
NORTH


CITY           SKY/WX    TMP DP  RH WIND       PRES   REMARKS
WATERTOWN      SUNNY     76  61  59 N9        30.03R
FORT DRUM      NOT AVBL
MASSENA        SUNNY     76  65  68 W6        29.99R
SARANAC LAKE   PTSUNNY   71  63  75 W9        30.03S
PLATTSBURGH    MOSUNNY   80  68  66 VRB6      29.94R
$$

NYZ001>004-010>016-019>021-085-261500-
WEST


CITY           SKY/WX    TMP DP  RH WIND       PRES   REMARKS
NIAGARA FALLS  MOSUNNY   77  68  73 SE5       30.08R
BUFFALO        MOSUNNY   76  67  73 S5        30.08S
DUNKIRK        CLOUDY    73  70  90 NW6       30.10R
JAMESTOWN      PTSUNNY   73  64  73 W8        30.15R
WELLSVILLE     PTSUNNY   73  66  78 NW8       30.17R
ROCHESTER      MOSUNNY   77  69  76 W6        30.08R
PENN YAN       MOSUNNY   76  65  68 W6        30.11R
$$

             KEY
       WCI = WIND CHILL INDEX
       VSB = VISIBILITY
       HX  = HEAT INDEX
$$




USA.gov is the U.S. government's official web portal to all federal, state and local government web resources and services.